Weather History for Cazaux, France

Change the Weather History Date:

Thursday, November 8, 2012

  Actual Average Record
Temperature  
Mean Temperature 52 °F -  
Max Temperature 62 °F 53 °F 73 °F (2006)
Min Temperature 41 °F 40 °F 30 °F (2007)
Degree Days  
Heating Degree Days 14    
Growing Degree Days 2 (Base 50)    
Moisture  
Dew Point 44 °F    
Average Humidity 79    
Maximum Humidity 94    
Minimum Humidity 55    
Precipitation  
Precipitation 0.00 in - - ()
Sea Level Pressure  
Sea Level Pressure 30.11 in    
Wind  
Wind Speed 4 mph ()    
Max Wind Speed 7 mph    
Max Gust Speed -    
Visibility 6.2 miles    
Events      
Averages and records for this station are not official NWS values.
T = Trace of Precipitation, MM = Missing Value Source: Averaged Metar Reports

Daily Weather History Graph

Daily Weather History Graph

Search for Another Location

Airport:

Trip Planner

Search our weather history database for the weather conditions in past years. The results will help you decide how hot, cold, wet, or windy it might be!

Date:

Astronomy

Nov. 08, 2012 Rise Set
Actual Time 7:51 AM CET 5:44 PM CET
Civil Twilight 7:20 AM CET 6:15 PM CET
Nautical Twilight 6:46 AM CET 6:49 PM CET
Astronomical Twilight 6:11 AM CET 7:23 PM CET
Moon 1:17 AM CET (11/8) 2:30 PM CET (11/8)
Length of Visible Light 10h 54m
Length of Day
9h 52m
Waning Crescent, 35% of the Moon is Illuminated
Nov 8
Waning Crescent
Nov 13
New
Nov 20
First Quarter
Nov 28
Full
Dec 6
Last Quarter

Hourly Weather History & Observations

Time (CET) Temp. Windchill Dew Point Humidity Pressure Visibility Wind Dir Wind Speed Gust Speed Precip Events Conditions
12:00 AM 41.0 °F 38.0 °F 37.4 °F 87% 30.24 in 6.2 mi NE 4.6 mph - N/A   Unknown
12:30 AM 41.0 °F 38.0 °F 37.4 °F 87% 30.24 in 6.2 mi ENE 4.6 mph - N/A   Unknown
1:00 AM 41.0 °F 39.0 °F 37.4 °F 87% 30.24 in 6.2 mi East 3.5 mph - N/A   Unknown
1:30 AM 41.0 °F 38.0 °F 39.2 °F 93% 30.21 in 6.2 mi East 4.6 mph - N/A   Unknown
2:00 AM 41.0 °F 38.0 °F 37.4 °F 87% 30.21 in 6.2 mi East 4.6 mph - N/A   Unknown
2:30 AM 41.0 °F 37.1 °F 39.2 °F 93% 30.18 in 6.2 mi ENE 5.8 mph - N/A   Unknown
3:00 AM 42.8 °F 41.1 °F 39.2 °F 87% 30.18 in 6.2 mi East 3.5 mph - N/A   Unknown
3:30 AM 42.8 °F - 39.2 °F 87% 30.18 in 6.2 mi ENE 2.3 mph - N/A   Unknown
4:00 AM 42.8 °F 41.1 °F 39.2 °F 87% 30.18 in 6.2 mi Variable 3.5 mph - N/A   Unknown
4:30 AM 42.8 °F - 39.2 °F 87% 30.15 in 6.2 mi Calm Calm - N/A   Unknown
5:00 AM 42.8 °F 41.1 °F 39.2 °F 87% 30.15 in 6.2 mi NE 3.5 mph - N/A   Unknown
5:30 AM 42.8 °F - 39.2 °F 87% 30.15 in 6.2 mi Calm Calm - N/A   Unknown
6:00 AM 42.8 °F 41.1 °F 39.2 °F 87% 30.12 in 6.2 mi SE 3.5 mph - N/A   Unknown
6:30 AM 42.8 °F 41.1 °F 39.2 °F 87% 30.12 in 6.2 mi Variable 3.5 mph - N/A   Unknown
7:00 AM 42.8 °F - 39.2 °F 87% 30.12 in 6.2 mi SE 2.3 mph - N/A   Unknown
7:30 AM 42.8 °F - 39.2 °F 87% 30.12 in 6.2 mi Variable 2.3 mph - N/A   Unknown
8:00 AM 44.6 °F - 39.2 °F 81% 30.12 in 6.2 mi Variable 2.3 mph - N/A   Unknown
8:30 AM 44.6 °F - 39.2 °F 81% 30.12 in 6.2 mi Variable 1.2 mph - N/A   Unknown
9:00 AM 46.4 °F 44.3 °F 41.0 °F 81% 30.12 in 6.2 mi ESE 4.6 mph - N/A   Unknown
9:30 AM 46.4 °F 45.2 °F 41.0 °F 81% 30.12 in 6.2 mi SE 3.5 mph - N/A   Unknown
10:00 AM 48.2 °F - 41.0 °F 76% 30.12 in 6.2 mi ESE 5.8 mph - N/A   Unknown
10:30 AM 50.0 °F - 42.8 °F 76% 30.12 in 6.2 mi SE 5.8 mph - N/A   Unknown
11:00 AM 50.0 °F - 41.0 °F 71% 30.12 in 6.2 mi SE 4.6 mph - N/A   Unknown
11:30 AM 53.6 °F - 42.8 °F 67% 30.12 in 6.2 mi SE 4.6 mph - N/A   Unknown
12:00 PM 55.4 °F - 42.8 °F 63% 30.12 in 6.2 mi SE 5.8 mph - N/A   Unknown
12:30 PM 57.2 °F - 44.6 °F 63% 30.09 in 6.2 mi SE 4.6 mph - N/A   Unknown
1:00 PM 59.0 °F - 44.6 °F 59% 30.09 in 6.2 mi SE 6.9 mph - N/A   Unknown
1:30 PM 60.8 °F - 46.4 °F 59% 30.06 in 6.2 mi ESE 4.6 mph - N/A   Unknown
2:00 PM 62.6 °F - 46.4 °F 55% 30.06 in 6.2 mi ENE 4.6 mph - N/A   Unknown
2:30 PM 62.6 °F - 46.4 °F 55% 30.06 in 6.2 mi ENE 4.6 mph - N/A   Unknown
3:00 PM 62.6 °F - 48.2 °F 59% 30.06 in 6.2 mi East 6.9 mph - N/A   Unknown
3:30 PM 60.8 °F - 48.2 °F 63% 30.06 in 6.2 mi East 5.8 mph - N/A   Unknown
4:00 PM 60.8 °F - 50.0 °F 68% 30.06 in 6.2 mi ENE 5.8 mph - N/A   Unknown
4:30 PM 60.8 °F - 50.0 °F 68% 30.06 in 6.2 mi East 3.5 mph - N/A   Unknown
5:00 PM 59.0 °F - 50.0 °F 72% 30.06 in 6.2 mi East 3.5 mph - N/A   Unknown
5:30 PM 57.2 °F - 50.0 °F 77% 30.06 in 6.2 mi ENE 3.5 mph - N/A   Unknown
6:00 PM 57.2 °F - 50.0 °F 77% 30.06 in 6.2 mi NE 5.8 mph - N/A   Unknown
6:30 PM 55.4 °F - 50.0 °F 82% 30.06 in 6.2 mi ENE 4.6 mph - N/A   Unknown
7:00 PM 55.4 °F - 50.0 °F 82% 30.06 in 6.2 mi NE 4.6 mph - N/A   Unknown
7:30 PM 53.6 °F - 48.2 °F 82% 30.06 in 6.2 mi NE 5.8 mph - N/A   Unknown
8:00 PM 53.6 °F - 48.2 °F 82% 30.06 in 6.2 mi North 3.5 mph - N/A   Unknown
8:30 PM 51.8 °F - 48.2 °F 88% 30.04 in 6.2 mi NNE 3.5 mph - N/A   Unknown
9:00 PM 51.8 °F - 50.0 °F 94% 30.04 in 6.2 mi ENE 4.6 mph - N/A   Unknown
9:30 PM 51.8 °F - 48.2 °F 88% 30.04 in 6.2 mi North 4.6 mph - N/A   Unknown
10:00 PM 51.8 °F - 48.2 °F 88% 30.01 in 6.2 mi ENE 5.8 mph - N/A   Unknown
10:30 PM 51.8 °F - 48.2 °F 88% 30.01 in 6.2 mi NE 6.9 mph - N/A   Unknown
11:00 PM 51.8 °F - 48.2 °F 88% 30.01 in 6.2 mi ENE 5.8 mph - N/A   Unknown
11:30 PM 50.0 °F - 48.2 °F 94% 30.01 in 6.2 mi NNE 2.3 mph - N/A   Unknown